NWS060 UWKD-UUEE

Flight info

Callsign NWS060
Flight time 1h 36m
Altitude 38000
Route APTAR1H APTAR L158 DIMGI DIMGI3F
Aircraft A21N/M-SDE2E3FGHIRWXY/LB1

Departure

Time 2026-05-04 11:05
Airport Kazan International Airport (UWKD)

Arrival

Time 2026-05-04 12:42
Airport Sheremetyevo International Airport (UUEE)
Time Latitude Longitude Altitude Speed Heading
2026-05-04 10:29 55.60716 49.29960 412 ft 0 kts 34°
2026-05-04 10:57 55.60708 49.29950 412 ft 3 kts 38°
2026-05-04 10:57 55.60693 49.29926 412 ft 3 kts 50°
2026-05-04 10:57 55.60681 49.29897 412 ft 3 kts 65°
2026-05-04 10:57 55.60675 49.29865 412 ft 3 kts 86°
2026-05-04 10:58 55.60677 49.29833 412 ft 3 kts 117°
2026-05-04 10:58 55.60680 49.29824 412 ft 3 kts 124°
2026-05-04 11:01 55.60476 49.30026 412 ft 14 kts 215°
2026-05-04 11:02 55.60388 49.29920 412 ft 16 kts 213°
2026-05-04 11:02 55.60274 49.29888 412 ft 18 kts 169°
2026-05-04 11:05 55.59287 49.13580 5166 ft 260 kts 248°
2026-05-04 11:06 55.58592 49.10586 6140 ft 265 kts 248°
2026-05-04 11:06 55.57885 49.07558 6980 ft 269 kts 249°
2026-05-04 11:06 55.57169 49.04480 7564 ft 272 kts 249°
2026-05-04 11:06 55.56442 49.01368 7875 ft 275 kts 249°
2026-05-04 11:08 55.51062 48.78411 10984 ft 341 kts 249°
2026-05-04 11:10 55.46089 48.48221 15708 ft 382 kts 287°
2026-05-04 11:12 55.51739 48.16080 20042 ft 402 kts 289°
2026-05-04 11:12 55.52555 48.11332 20587 ft 406 kts 289°
2026-05-04 11:12 55.53373 48.06554 21099 ft 409 kts 289°
2026-05-04 11:12 55.54195 48.01730 21620 ft 411 kts 289°
2026-05-04 11:13 55.55022 47.96877 22139 ft 415 kts 289°
2026-05-04 11:13 55.55854 47.91980 22665 ft 417 kts 289°
2026-05-04 11:13 55.56686 47.87059 23182 ft 420 kts 289°
2026-05-04 11:13 55.57523 47.82090 23683 ft 423 kts 289°
2026-05-04 11:14 55.57807 47.80403 23854 ft 424 kts 289°
2026-05-04 11:16 55.66069 47.30556 28268 ft 444 kts 288°
2026-05-04 11:16 55.66924 47.25315 28771 ft 443 kts 288°
2026-05-04 11:16 55.67775 47.20081 29275 ft 441 kts 288°
2026-05-04 11:17 55.68620 47.14864 29772 ft 439 kts 288°
2026-05-04 11:17 55.69457 47.09671 30240 ft 438 kts 288°
2026-05-04 11:19 55.75230 46.73582 33087 ft 432 kts 287°
2026-05-04 11:19 55.76038 46.68455 33446 ft 431 kts 287°
2026-05-04 11:19 55.76844 46.63327 33806 ft 430 kts 287°
2026-05-04 11:19 55.77645 46.58217 34124 ft 429 kts 287°
2026-05-04 11:20 55.78445 46.53104 34429 ft 429 kts 286°
2026-05-04 11:20 55.79199 46.47985 34726 ft 429 kts 283°
2026-05-04 11:20 55.79584 46.42726 34982 ft 429 kts 275°
2026-05-04 11:20 55.79767 46.37430 35222 ft 430 kts 274°
2026-05-04 11:22 55.80903 46.00397 36768 ft 429 kts 274°
2026-05-04 11:22 55.81061 45.95125 37065 ft 426 kts 274°
2026-05-04 11:23 55.81216 45.89888 37347 ft 423 kts 274°
2026-05-04 11:23 55.81368 45.84677 37555 ft 422 kts 274°
2026-05-04 11:24 55.82237 45.53346 37887 ft 424 kts 274°
2026-05-04 11:25 55.82374 45.48120 37880 ft 423 kts 273°
2026-05-04 11:25 55.82641 45.37659 37881 ft 424 kts 274°
2026-05-04 11:27 55.83738 44.90539 37867 ft 423 kts 273°
2026-05-04 11:28 55.83963 44.80089 37872 ft 423 kts 273°
2026-05-04 11:28 55.84180 44.69638 37872 ft 423 kts 273°
2026-05-04 11:29 55.84388 44.59172 37862 ft 423 kts 273°
2026-05-04 11:29 55.84589 44.48725 37857 ft 422 kts 273°
2026-05-04 11:33 55.85731 43.75841 37850 ft 420 kts 272°
2026-05-04 11:33 55.85857 43.65502 37850 ft 421 kts 272°
2026-05-04 11:34 55.85976 43.55090 37850 ft 421 kts 272°
2026-05-04 11:34 55.86088 43.44670 37850 ft 421 kts 272°
2026-05-04 11:35 55.86199 43.34255 37851 ft 421 kts 272°
2026-05-04 11:35 55.86299 43.23844 37851 ft 421 kts 272°
2026-05-04 11:36 55.86390 43.13422 37851 ft 421 kts 272°
2026-05-04 11:36 55.86459 43.04762 37858 ft 421 kts 272°
2026-05-04 11:37 55.86534 42.94344 37859 ft 421 kts 272°
2026-05-04 11:37 55.86601 42.83928 37859 ft 421 kts 272°
2026-05-04 11:38 55.86658 42.73512 37862 ft 421 kts 272°
2026-05-04 11:38 55.86708 42.63094 37856 ft 421 kts 272°
2026-05-04 11:39 55.86748 42.52667 37861 ft 421 kts 272°
2026-05-04 11:41 55.86816 42.16267 37861 ft 420 kts 271°
2026-05-04 11:41 55.86810 42.05868 37859 ft 420 kts 271°
2026-05-04 11:42 55.86805 41.95475 37862 ft 420 kts 271°
2026-05-04 11:42 55.86793 41.85077 37860 ft 420 kts 271°
2026-05-04 11:43 55.86668 41.74675 37856 ft 420 kts 269°
2026-05-04 11:43 55.86367 41.64282 37860 ft 420 kts 269°
2026-05-04 11:44 55.86052 41.53889 37858 ft 420 kts 269°
2026-05-04 11:44 55.85728 41.43489 37861 ft 421 kts 269°
2026-05-04 11:45 55.85400 41.33165 37861 ft 421 kts 269°
2026-05-04 11:45 55.85062 41.22773 37862 ft 421 kts 268°
2026-05-04 11:46 55.84713 41.12385 37862 ft 420 kts 268°
2026-05-04 11:46 55.84355 41.02011 37859 ft 420 kts 268°
2026-05-04 11:47 55.83992 40.91644 37862 ft 420 kts 268°
2026-05-04 11:47 55.83619 40.81347 37509 ft 416 kts 268°
2026-05-04 11:47 55.83429 40.76209 37265 ft 416 kts 268°
2026-05-04 11:48 55.83239 40.71072 36901 ft 415 kts 269°
2026-05-04 11:48 55.83048 40.65956 36376 ft 414 kts 269°
2026-05-04 11:48 55.82855 40.60851 35801 ft 414 kts 269°
2026-05-04 11:48 55.82651 40.55743 35221 ft 414 kts 269°
2026-05-04 11:49 55.82445 40.50638 34631 ft 414 kts 269°
2026-05-04 11:49 55.82236 40.45530 33992 ft 415 kts 269°
2026-05-04 11:49 55.82025 40.40403 33342 ft 416 kts 270°
2026-05-04 11:49 55.81813 40.35261 32693 ft 417 kts 270°
2026-05-04 11:50 55.81599 40.30121 32042 ft 417 kts 270°
2026-05-04 11:50 55.81381 40.24965 31364 ft 418 kts 269°
2026-05-04 11:50 55.81161 40.19804 30691 ft 419 kts 270°
2026-05-04 11:50 55.80937 40.14638 30027 ft 419 kts 270°
2026-05-04 11:51 55.80712 40.09462 29314 ft 420 kts 269°
2026-05-04 11:51 55.80486 40.04290 28655 ft 420 kts 269°
2026-05-04 11:51 55.80256 39.99126 28031 ft 418 kts 269°
2026-05-04 11:51 55.80024 39.93982 27436 ft 416 kts 269°
2026-05-04 11:52 55.79793 39.88874 26820 ft 414 kts 269°
2026-05-04 11:52 55.79561 39.83777 26176 ft 413 kts 269°
2026-05-04 11:52 55.79282 39.78716 25648 ft 413 kts 266°
2026-05-04 11:52 55.78950 39.73627 25325 ft 416 kts 266°
2026-05-04 11:53 55.78610 39.68530 25052 ft 415 kts 266°
2026-05-04 11:53 55.78270 39.63458 24796 ft 413 kts 266°
2026-05-04 11:53 55.77931 39.58395 24544 ft 412 kts 266°
2026-05-04 11:53 55.77591 39.53343 24295 ft 411 kts 266°
2026-05-04 11:55 55.75261 39.19797 22728 ft 364 kts 265°
2026-05-04 11:55 55.74950 39.15399 22536 ft 364 kts 265°
2026-05-04 11:56 55.74632 39.10950 22341 ft 363 kts 265°
2026-05-04 11:56 55.74311 39.06513 22143 ft 362 kts 265°
2026-05-04 11:56 55.73992 39.02098 21945 ft 361 kts 265°
2026-05-04 11:56 55.73672 38.97691 21852 ft 360 kts 265°
2026-05-04 11:57 55.73410 38.93280 21845 ft 358 kts 271°
2026-05-04 11:57 55.73514 38.88935 21633 ft 348 kts 277°
2026-05-04 11:57 55.73736 38.84719 21321 ft 340 kts 278°
2026-05-04 11:57 55.73961 38.80577 21053 ft 334 kts 278°
2026-05-04 11:58 55.74174 38.76513 20794 ft 328 kts 277°
2026-05-04 11:58 55.74377 38.72506 20541 ft 332 kts 277°
2026-05-04 11:58 55.74588 38.68299 20318 ft 347 kts 277°
2026-05-04 11:58 55.74795 38.64039 20086 ft 346 kts 277°
2026-05-04 11:59 55.75026 38.59805 19877 ft 344 kts 281°
2026-05-04 11:59 55.75694 38.55763 19838 ft 341 kts 297°
2026-05-04 11:59 55.76940 38.52191 19856 ft 340 kts 306°
2026-05-04 11:59 55.78324 38.48784 19872 ft 340 kts 306°
2026-05-04 12:00 55.79712 38.45373 19885 ft 341 kts 306°
2026-05-04 12:00 55.81090 38.41952 19886 ft 340 kts 306°
2026-05-04 12:00 55.82451 38.38552 19881 ft 330 kts 306°
2026-05-04 12:00 55.83804 38.35379 19786 ft 316 kts 308°
2026-05-04 12:01 55.85143 38.32311 19365 ft 312 kts 308°
2026-05-04 12:01 55.86475 38.29261 18929 ft 311 kts 308°
2026-05-04 12:02 55.94249 38.11310 16854 ft 299 kts 307°
2026-05-04 12:03 55.95519 38.08375 16602 ft 298 kts 307°
2026-05-04 12:03 55.96779 38.05446 16346 ft 296 kts 307°
2026-05-04 12:03 55.98032 38.02530 16100 ft 296 kts 307°
2026-05-04 12:03 55.99277 37.99617 15840 ft 295 kts 307°
2026-05-04 12:04 56.00373 37.96560 15590 ft 294 kts 295°
2026-05-04 12:04 56.00944 37.93031 15395 ft 295 kts 283°
2026-05-04 12:04 56.01311 37.89424 15207 ft 295 kts 282°
2026-05-04 12:04 56.01664 37.85833 15019 ft 294 kts 282°
2026-05-04 12:05 56.02029 37.82237 14873 ft 293 kts 283°
2026-05-04 12:05 56.02671 37.78816 14845 ft 291 kts 300°
2026-05-04 12:05 56.03944 37.76057 14752 ft 287 kts 320°
2026-05-04 12:05 56.05654 37.74264 14430 ft 284 kts 333°
2026-05-04 12:06 56.07455 37.72830 14051 ft 283 kts 334°
2026-05-04 12:06 56.09264 37.71399 13674 ft 285 kts 334°
2026-05-04 12:06 56.11077 37.69936 13297 ft 287 kts 334°
2026-05-04 12:06 56.12888 37.68419 12924 ft 287 kts 330°
2026-05-04 12:07 56.14632 37.66660 12561 ft 288 kts 328°
2026-05-04 12:07 56.16355 37.64833 12224 ft 288 kts 327°
2026-05-04 12:07 56.18073 37.63000 11887 ft 286 kts 327°
2026-05-04 12:07 56.19774 37.61185 11540 ft 282 kts 327°
2026-05-04 12:08 56.21463 37.59385 11190 ft 283 kts 327°
2026-05-04 12:08 56.23135 37.57603 10835 ft 284 kts 327°
2026-05-04 12:08 56.24837 37.55786 10466 ft 284 kts 327°
2026-05-04 12:08 56.26533 37.53978 10085 ft 282 kts 327°
2026-05-04 12:09 56.28218 37.52156 9721 ft 283 kts 324°
2026-05-04 12:09 56.29662 37.49803 9348 ft 280 kts 304°
2026-05-04 12:09 56.30421 37.46633 8946 ft 275 kts 279°
2026-05-04 12:09 56.30344 37.43223 8504 ft 276 kts 255°
2026-05-04 12:10 56.29512 37.40127 8074 ft 277 kts 237°
2026-05-04 12:10 56.28406 37.37311 7724 ft 274 kts 236°
2026-05-04 12:10 56.27314 37.34562 7514 ft 265 kts 236°
2026-05-04 12:10 56.26166 37.32054 7367 ft 257 kts 223°
2026-05-04 12:11 56.24649 37.30477 7240 ft 251 kts 200°
2026-05-04 12:11 56.22943 37.30174 7109 ft 245 kts 176°
2026-05-04 12:11 56.21296 37.30869 6872 ft 242 kts 166°
2026-05-04 12:11 56.19720 37.31753 6677 ft 232 kts 166°
2026-05-04 12:12 56.18224 37.32624 6503 ft 223 kts 162°
2026-05-04 12:12 56.16962 37.34184 6197 ft 225 kts 130°
2026-05-04 12:12 56.16424 37.36732 5992 ft 219 kts 92°
2026-05-04 12:12 56.16699 37.39362 5744 ft 214 kts 72°
2026-05-04 12:13 56.17146 37.41897 5462 ft 212 kts 72°
2026-05-04 12:14 56.19053 37.59960 3232 ft 217 kts 124°
2026-05-04 12:15 56.18062 37.61964 3137 ft 214 kts 139°
2026-05-04 12:15 56.17003 37.63839 3004 ft 214 kts 138°
2026-05-04 12:15 56.15954 37.65733 2863 ft 214 kts 137°
2026-05-04 12:15 56.14909 37.67635 2747 ft 214 kts 137°
2026-05-04 12:16 56.13870 37.69533 2647 ft 213 kts 137°
2026-05-04 12:16 56.12830 37.71438 2830 ft 214 kts 137°
2026-05-04 12:16 56.11788 37.73334 3024 ft 214 kts 137°
2026-05-04 12:16 56.10750 37.75226 3104 ft 212 kts 137°
2026-05-04 12:17 56.09624 37.76932 3089 ft 211 kts 155°
2026-05-04 12:17 56.08234 37.77290 2972 ft 198 kts 192°
2026-05-04 12:17 56.06979 37.76589 2853 ft 182 kts 202°
2026-05-04 12:17 56.05810 37.75869 2732 ft 175 kts 202°
2026-05-04 12:18 56.04640 37.75180 2590 ft 182 kts 201°
2026-05-04 12:18 56.03429 37.74481 2590 ft 184 kts 201°
2026-05-04 12:18 56.02234 37.73667 2578 ft 182 kts 213°
2026-05-04 12:18 56.01500 37.71932 2512 ft 178 kts 251°
2026-05-04 12:19 56.01209 37.69798 2503 ft 176 kts 259°
2026-05-04 12:19 56.00967 37.67642 2516 ft 177 kts 258°
2026-05-04 12:19 56.00695 37.65512 2522 ft 174 kts 257°
2026-05-04 12:19 56.00411 37.63502 2512 ft 159 kts 256°
2026-05-04 12:20 56.00140 37.61654 2293 ft 148 kts 256°
2026-05-04 12:20 55.99892 37.59978 2039 ft 133 kts 256°
2026-05-04 12:20 55.99655 37.58386 1982 ft 132 kts 257°
2026-05-04 12:20 55.99418 37.56794 1975 ft 133 kts 257°
2026-05-04 12:21 55.99183 37.55211 1884 ft 129 kts 256°
2026-05-04 12:21 55.98954 37.53672 1739 ft 126 kts 257°
2026-05-04 12:21 55.98729 37.52164 1564 ft 126 kts 257°
2026-05-04 12:21 55.98502 37.50638 1374 ft 128 kts 257°
2026-05-04 12:22 55.98351 37.49621 1261 ft 128 kts 256°
2026-05-04 12:22 55.98048 37.47590 1019 ft 127 kts 259°
2026-05-04 12:22 55.97819 37.46059 836 ft 121 kts 259°
2026-05-04 12:22 55.97671 37.45044 744 ft 128 kts 257°
2026-05-04 12:23 55.97369 37.43011 670 ft 131 kts 257°
2026-05-04 12:23 55.97141 37.41484 704 ft 136 kts 257°
2026-05-04 12:23 55.96885 37.39778 1313 ft 154 kts 256°
2026-05-04 12:23 55.96692 37.38456 1703 ft 170 kts 257°
2026-05-04 12:24 55.96397 37.36283 2487 ft 188 kts 257°
2026-05-04 12:24 55.95987 37.33933 3147 ft 211 kts 239°
2026-05-04 12:24 55.94861 37.32212 3603 ft 221 kts 202°
2026-05-04 12:24 55.93358 37.31513 4042 ft 225 kts 197°
2026-05-04 12:25 55.91868 37.30663 4452 ft 225 kts 205°
2026-05-04 12:25 55.90438 37.29539 4803 ft 225 kts 208°
2026-05-04 12:25 55.89030 37.28301 5169 ft 226 kts 210°
2026-05-04 12:25 55.87635 37.27002 5512 ft 226 kts 212°
2026-05-04 12:26 55.86446 37.25230 5830 ft 223 kts 238°
2026-05-04 12:26 55.85940 37.22662 6169 ft 222 kts 268°
2026-05-04 12:26 55.86232 37.19970 6498 ft 225 kts 291°
2026-05-04 12:26 55.86894 37.17433 6780 ft 227 kts 294°
2026-05-04 12:27 55.87567 37.14929 6901 ft 227 kts 294°
2026-05-04 12:27 55.88238 37.12345 6902 ft 227 kts 293°
2026-05-04 12:27 55.88887 37.09781 6896 ft 227 kts 292°
2026-05-04 12:27 55.89514 37.07240 6881 ft 227 kts 292°
2026-05-04 12:28 55.90155 37.04629 6881 ft 227 kts 292°
2026-05-04 12:28 55.90787 37.02094 6880 ft 227 kts 294°
2026-05-04 12:28 55.91607 36.99688 6873 ft 229 kts 307°
2026-05-04 12:28 55.92826 36.97859 6879 ft 233 kts 330°
2026-05-04 12:29 55.94389 36.97059 6882 ft 238 kts 354°
2026-05-04 12:29 55.96046 36.97384 6890 ft 243 kts 11°
2026-05-04 12:29 55.97676 36.98197 6885 ft 243 kts 13°
2026-05-04 12:29 55.99305 36.99019 6883 ft 243 kts 12°
2026-05-04 12:30 56.00938 36.99809 6885 ft 243 kts 12°
2026-05-04 12:30 56.02583 37.00576 6880 ft 245 kts 11°
2026-05-04 12:30 56.04236 37.01332 6873 ft 246 kts 11°
2026-05-04 12:30 56.05887 37.02082 6878 ft 245 kts 11°
2026-05-04 12:31 56.07544 37.02837 6878 ft 245 kts 11°
2026-05-04 12:31 56.09196 37.03588 6882 ft 245 kts 12°
2026-05-04 12:31 56.10788 37.04703 6875 ft 249 kts 29°
2026-05-04 12:31 56.12048 37.06830 6872 ft 252 kts 55°
2026-05-04 12:32 56.12742 37.09719 6879 ft 254 kts 75°
2026-05-04 12:32 56.13540 37.15900 6882 ft 254 kts 77°
2026-05-04 12:32 56.13931 37.18992 6874 ft 254 kts 77°
2026-05-04 12:33 56.14320 37.22083 6798 ft 254 kts 77°
2026-05-04 12:33 56.14708 37.25167 6683 ft 254 kts 77°
2026-05-04 12:33 56.15096 37.28252 6558 ft 253 kts 77°
2026-05-04 12:33 56.15483 37.31329 6403 ft 252 kts 77°
2026-05-04 12:34 56.15867 37.34388 6187 ft 251 kts 77°
2026-05-04 12:34 56.16252 37.37440 5954 ft 251 kts 77°
2026-05-04 12:34 56.16638 37.40492 5724 ft 250 kts 77°
2026-05-04 12:34 56.16983 37.43537 5484 ft 249 kts 85°
2026-05-04 12:35 56.16853 37.46591 5194 ft 246 kts 108°
2026-05-04 12:35 56.16083 37.49274 4894 ft 240 kts 133°
2026-05-04 12:35 56.14833 37.51179 4570 ft 234 kts 153°
2026-05-04 12:35 56.13385 37.52504 4249 ft 234 kts 158°
2026-05-04 12:36 56.11923 37.53780 4046 ft 234 kts 157°
2026-05-04 12:36 56.10467 37.55085 3789 ft 232 kts 156°
2026-05-04 12:36 56.09057 37.56375 3638 ft 223 kts 156°
2026-05-04 12:36 56.07713 37.57607 3653 ft 211 kts 156°
2026-05-04 12:37 56.06436 37.58790 3525 ft 202 kts 156°
2026-05-04 12:37 56.05230 37.59912 3415 ft 190 kts 156°
2026-05-04 12:37 56.04095 37.60966 3354 ft 177 kts 156°
2026-05-04 12:37 56.03031 37.61953 3274 ft 167 kts 157°
2026-05-04 12:38 56.02047 37.62871 3026 ft 149 kts 158°
2026-05-04 12:38 56.01125 37.63661 2758 ft 146 kts 165°
2026-05-04 12:38 56.00202 37.63602 2293 ft 130 kts 217°
2026-05-04 12:38 55.99832 37.62241 2085 ft 125 kts 266°
2026-05-04 12:39 55.99797 37.60691 1990 ft 125 kts 266°
2026-05-04 12:39 55.99685 37.59182 1983 ft 126 kts 261°
2026-05-04 12:39 55.99510 37.57654 1978 ft 125 kts 258°
2026-05-04 12:39 55.99312 37.56150 1958 ft 125 kts 258°
2026-05-04 12:40 55.99096 37.54646 1826 ft 125 kts 257°
2026-05-04 12:40 55.98875 37.53148 1687 ft 124 kts 257°
2026-05-04 12:40 55.98654 37.51662 1510 ft 124 kts 257°
2026-05-04 12:40 55.98432 37.50171 1320 ft 124 kts 256°
2026-05-04 12:41 55.98209 37.48674 1157 ft 125 kts 256°
2026-05-04 12:41 55.97988 37.47188 995 ft 122 kts 258°
2026-05-04 12:41 55.97761 37.45669 828 ft 129 kts 258°
2026-05-04 12:41 55.97532 37.44131 678 ft 127 kts 257°
2026-05-04 12:42 55.97329 37.42743 647 ft 93 kts 255°
2026-05-04 12:42 55.97207 37.41918 643 ft 45 kts 255°
2026-05-04 12:42 55.97140 37.41482 645 ft 30 kts 256°
2026-05-04 12:42 55.97280 37.41289 645 ft 30 kts 346°
2026-05-04 12:43 55.97461 37.41204 645 ft 18 kts 344°
2026-05-04 12:43 55.97552 37.41301 644 ft 19 kts 80°
2026-05-04 12:43 55.97587 37.41541 644 ft 19 kts 73°
2026-05-04 12:43 55.97688 37.41638 644 ft 19 kts 57°
2026-05-04 12:44 55.97718 37.41810 644 ft 7 kts 76°
2026-05-04 12:44 55.97767 37.41827 644 ft 9 kts 346°
2026-05-04 12:44 55.97795 37.41814 644 ft 2 kts 346°
2026-05-04 12:44 55.97797 37.41813 644 ft 0 kts 346°